Date String (YYYY-MM-DD hh:mm:ss) UTC,Instrument flags,Ambient pressure (hPa),Sample flow (lpm),Bypass flow (lpm),Sample temperature (°C),Ambient temperature (°C),ASC tube jacket temperature (°C),LED temperature (°C),Box temperature (°C),Sample RH (%),Span deviation,Mass concentration (μg/m³),Mass concentration (μg/m³),Mass concentration (μg/m³)
DateTimeUTC,F1_M11,P_M11,Q1_M11,Q2_M11,T1_M11,T2_M11,T3_M11,T4_M11,T5_M11,U1_M11,ZSPAN_M11,X0_M11,X2_M11,X1_M11
2022-08-15 02:00:00,,0829.0,5.01,0.00,31.4,28.1,00.0,39.5,31.9,35.1,0000.0,0012.10,0005.65,0004.53
2022-08-15 02:01:00,,0829.0,4.99,0.00,31.6,28.3,00.0,39.5,32.1,34.5,0000.0,0011.74,0005.61,0004.53
2022-08-15 02:02:00,,0828.9,5.00,0.00,31.7,28.4,00.0,39.6,32.1,34.3,0000.0,0011.64,0005.58,0004.52
2022-08-15 02:03:00,,0828.9,5.00,0.00,31.7,28.5,00.0,39.6,32.1,33.9,0000.0,0011.68,0005.60,0004.53
2022-08-15 02:04:00,,0828.9,5.00,0.00,31.8,28.6,00.0,39.6,32.2,33.9,0000.0,0011.77,0005.60,0004.53
2022-08-15 02:05:00,,0828.9,5.00,0.00,31.8,28.7,00.0,39.7,32.2,33.9,0000.0,0011.89,0005.56,0004.52
2022-08-15 02:06:00,,0828.9,5.01,0.00,31.7,28.2,00.0,39.6,31.9,33.8,0000.0,0012.31,0005.54,0004.49
2022-08-15 02:07:00,,0828.9,5.00,0.00,31.6,27.5,00.0,39.6,31.7,34.1,0000.0,0012.74,0005.52,0004.46
2022-08-15 02:08:00,,0829.0,5.00,0.00,31.5,27.2,00.0,39.6,31.7,34.2,0000.0,0012.61,0005.48,0004.43
2022-08-15 02:09:00,,0829.0,5.00,0.00,31.3,27.2,00.0,39.6,31.5,34.6,0000.0,0013.43,0005.44,0004.40
2022-08-15 02:10:00,,0829.0,5.00,0.00,31.2,27.3,00.0,39.5,31.5,34.8,0000.0,0013.60,0005.40,0004.38
2022-08-15 02:11:00,,0829.0,5.01,0.00,31.1,27.5,00.0,39.5,31.6,35.1,0000.0,0012.97,0005.37,0004.37
2022-08-15 02:12:00,,0829.0,5.00,0.00,31.2,27.6,00.0,39.5,31.8,34.9,0000.0,0012.74,0005.38,0004.38
2022-08-15 02:13:00,,0829.1,5.01,0.00,31.3,27.8,00.0,39.5,31.9,34.6,0000.0,0012.74,0005.38,0004.38
2022-08-15 02:14:00,,0829.1,5.00,0.00,31.3,28.0,00.0,39.5,31.9,34.4,0000.0,0012.71,0005.33,0004.38
2022-08-15 02:15:00,,0829.1,5.00,0.00,31.3,28.2,00.0,39.5,32.0,34.4,0000.0,0012.77,0005.35,0004.40
2022-08-15 02:16:00,,0829.1,5.00,0.00,31.3,28.3,00.0,39.5,32.0,34.4,0000.0,0013.07,0005.40,0004.41
2022-08-15 02:17:00,,0829.1,4.99,0.00,31.3,28.5,00.0,39.5,32.0,34.3,0000.0,0013.17,0005.38,0004.41
2022-08-15 02:18:00,,0829.1,5.01,0.00,31.3,28.6,00.0,39.5,32.0,34.2,0000.0,0012.62,0005.34,0004.39
2022-08-15 02:19:00,,0829.0,4.99,0.00,31.3,28.7,00.0,39.6,32.1,34.6,0000.0,0013.29,0005.31,0004.36
2022-08-15 02:20:00,,0829.0,5.01,0.00,31.3,28.5,00.0,39.6,32.0,35.3,0000.0,0012.68,0005.27,0004.32
2022-08-15 02:21:00,,0829.0,5.01,0.00,31.4,27.8,00.0,39.5,31.9,34.5,0000.0,0011.98,0005.18,0004.27
2022-08-15 02:22:00,,0829.0,5.00,0.00,31.5,27.4,00.0,39.5,31.8,34.5,0000.0,0011.77,0005.10,0004.21
2022-08-15 02:23:00,,0829.0,5.00,0.00,31.4,27.2,00.0,39.4,31.7,34.6,0000.0,0011.73,0005.04,0004.14
2022-08-15 02:24:00,,0829.0,5.01,0.00,31.3,27.3,00.0,39.4,31.7,33.9,0000.0,0011.71,0004.97,0004.08
2022-08-15 02:25:00,,0829.1,5.00,0.00,31.2,27.4,00.0,39.4,31.7,33.6,0000.0,0011.59,0004.89,0004.00
2022-08-15 02:26:00,,0829.1,4.99,0.00,31.1,27.6,00.0,39.4,31.7,33.8,0000.0,0011.57,0004.71,0003.91
2022-08-15 02:27:00,,0829.1,5.01,0.00,31.1,27.8,00.0,39.4,31.7,34.2,0000.0,0010.93,0004.57,0003.82
2022-08-15 02:28:00,,0829.0,5.00,0.00,31.1,28.0,00.0,39.4,31.7,35.2,0000.0,0009.99,0004.48,0003.75
2022-08-15 02:29:00,,0829.0,5.00,0.00,31.2,28.1,00.0,39.4,31.9,35.4,0000.0,0009.71,0004.39,0003.70
2022-08-15 02:30:00,,0829.1,5.00,0.00,31.5,28.3,00.0,39.4,32.1,35.0,0000.0,0009.08,0004.32,0003.66
2022-08-15 02:31:00,,0829.1,5.00,0.00,31.8,28.4,00.0,39.4,32.2,33.1,0000.0,0009.71,0004.23,0003.63
2022-08-15 02:32:00,,0829.1,5.00,0.00,31.9,28.5,00.0,39.5,32.3,32.6,0000.0,0009.65,0004.19,0003.60
2022-08-15 02:33:00,,0829.2,5.00,0.00,32.0,28.6,00.0,39.5,32.2,32.4,0000.0,0009.65,0004.18,0003.58
2022-08-15 02:34:00,,0829.2,5.00,0.00,32.0,28.7,00.0,39.6,32.2,32.3,0000.0,0009.65,0004.17,0003.56
2022-08-15 02:35:00,,0829.3,5.02,0.00,32.0,28.4,00.0,39.7,32.1,32.3,0000.0,0009.62,0004.15,0003.55
2022-08-15 02:36:00,,0829.3,4.99,0.00,31.9,27.7,00.0,39.6,31.8,32.8,0000.0,0009.74,0004.20,0003.56
2022-08-15 02:37:00,,0829.3,5.00,0.00,31.8,27.2,00.0,39.6,31.7,32.9,0000.0,0009.30,0004.23,0003.57
2022-08-15 02:38:00,,0829.3,5.01,0.00,31.6,27.2,00.0,39.6,31.7,32.9,0000.0,0009.41,0004.26,0003.59
2022-08-15 02:39:00,,0829.3,5.00,0.00,31.5,27.2,00.0,39.6,31.7,33.1,0000.0,0009.36,0004.28,0003.59
2022-08-15 02:40:00,,0829.2,4.99,0.00,31.4,27.4,00.0,39.6,31.7,33.3,0000.0,0009.50,0004.29,0003.59
2022-08-15 02:41:00,,0829.2,5.00,0.00,31.3,27.6,00.0,39.6,31.7,33.5,0000.0,0009.31,0004.34,0003.61
2022-08-15 02:42:00,,0829.4,5.00,0.00,31.2,27.7,00.0,39.6,31.8,33.7,0000.0,0008.30,0004.35,0003.62
2022-08-15 02:43:00,,0829.3,4.98,0.00,31.2,27.9,00.0,39.6,31.8,33.9,0000.0,0008.38,0004.38,0003.64
2022-08-15 02:44:00,,0829.3,5.01,0.00,31.1,28.1,00.0,39.6,31.8,33.8,0000.0,0008.50,0004.38,0003.63
2022-08-15 02:45:00,,0829.5,5.00,0.00,31.1,28.2,00.0,39.6,31.9,34.0,0000.0,0008.72,0004.38,0003.63
2022-08-15 02:46:00,,0829.5,5.00,0.00,31.1,28.4,00.0,39.5,31.9,34.1,0000.0,0008.85,0004.37,0003.64
2022-08-15 02:47:00,,0829.5,5.01,0.00,31.0,28.5,00.0,39.5,31.9,34.7,0000.0,0008.95,0004.34,0003.64
2022-08-15 02:48:00,,0829.4,5.00,0.00,31.1,28.6,00.0,39.5,32.0,35.4,0000.0,0009.05,0004.38,0003.66
2022-08-15 02:49:00,,0829.5,4.99,0.00,31.3,28.7,00.0,39.5,32.2,34.5,0000.0,0008.88,0004.38,0003.65
2022-08-15 02:50:00,,0829.5,5.01,0.00,31.4,28.3,00.0,39.5,32.1,33.5,0000.0,0008.85,0004.35,0003.64
2022-08-15 02:51:00,,0829.5,5.01,0.00,31.4,27.6,00.0,39.4,31.8,33.4,0000.0,0008.72,0004.30,0003.62
2022-08-15 02:52:00,,0829.5,5.00,0.00,31.4,27.2,00.0,39.4,31.7,33.4,0000.0,0008.66,0004.24,0003.59
2022-08-15 02:53:00,,0829.5,5.00,0.00,31.2,27.1,00.0,39.4,31.5,33.6,0000.0,0008.74,0004.25,0003.57
2022-08-15 02:54:00,,0829.5,4.99,0.00,31.1,27.2,00.0,39.4,31.5,33.7,0000.0,0008.70,0004.23,0003.55
2022-08-15 02:55:00,,0829.6,4.99,0.00,31.0,27.3,00.0,39.4,31.5,33.6,0000.0,0008.70,0004.23,0003.54
2022-08-15 02:56:00,,0829.6,5.00,0.00,31.0,27.5,00.0,39.4,31.6,33.6,0000.0,0008.54,0004.26,0003.54
2022-08-15 02:57:00,,0829.6,5.00,0.00,30.9,27.7,00.0,39.3,31.6,33.7,0000.0,0009.40,0004.23,0003.54
2022-08-15 02:58:00,,0829.7,4.99,0.00,30.9,27.9,00.0,39.3,31.7,33.8,0000.0,0009.02,0004.21,0003.51
2022-08-15 02:59:00,,0829.6,5.01,0.00,30.9,28.0,00.0,39.3,31.7,34.1,0000.0,0008.93,0004.17,0003.49
